FW9226 Weather Reports


Display with metric or nautical units.
time (UTC)temp
F
wind
direction
speed
MPH
gust
MPH
rain 1hr
in
rain 24hr
in
rain mn
in
humidity
%
barometer
mb
20260903044004 52 191 0.0 0.0 0.00 0.00 0.00 78 1019.0
20260903043503 52 191 0.0 0.0 0.00 0.00 0.00 78 1019.1
20260903043004 52 191 0.0 0.0 0.00 0.00 0.00 78 1019.1
20260903042006 52 191 0.0 0.0 0.00 0.00 0.00 77 1019.1
20260903041504 53 191 0.0 0.0 0.00 0.00 0.00 77 1019.0
20260903040504 53 191 0.0 0.0 0.00 0.00 0.00 77 1019.1
20260903040008 53 191 0.0 0.0 0.00 0.00 0.00 77 1019.1
20260903035505 53 191 0.0 0.0 0.00 0.00 0.00 76 1019.1
20260903035002 53 191 0.0 0.0 0.00 0.00 0.00 76 1019.1
20260903034503 54 191 0.0 0.0 0.00 0.00 0.00 75 1019.0
20260903034005 54 191 0.0 0.0 0.00 0.00 0.00 75 1018.9
20260903033503 54 191 0.0 0.0 0.00 0.00 0.00 75 1018.9
20260903033006 54 191 0.0 0.0 0.00 0.00 0.00 74 1018.8
20260903032503 55 191 0.0 0.0 0.00 0.00 0.00 73 1018.8
20260903032004 55 191 0.0 0.0 0.00 0.00 0.00 72 1018.7
20260903031504 55 191 0.0 0.0 0.00 0.00 0.00 72 1018.7
20260903031005 55 191 0.0 0.0 0.00 0.00 0.00 72 1018.7
20260903030503 55 191 0.0 0.0 0.00 0.00 0.00 71 1018.7
20260903030006 56 191 0.0 0.0 0.00 0.00 0.00 70 1018.6
20260903025504 56 191 0.0 0.0 0.00 0.00 0.00 69 1018.6
20260903025006 56 191 0.0 0.0 0.00 0.00 0.00 68 1018.6
20260903023503 58 191 0.0 0.0 0.00 0.00 0.00 66 1018.6
20260903023005 58 191 0.0 0.0 0.00 0.00 0.00 65 1018.7
20260903022504 58 191 0.0 0.0 0.00 0.00 0.00 64 1018.7
20260903022003 59 191 0.0 0.0 0.00 0.00 0.00 63 1018.7
20260903021505 59 79 0.0 1.0 0.00 0.00 0.00 62 1018.8
20260903021004 59 80 0.0 1.0 0.00 0.00 0.00 62 1018.8
20260903020504 59 75 0.0 1.0 0.00 0.00 0.00 60 1018.8
20260903020007 60 75 0.0 1.0 0.00 0.00 0.00 60 1018.8
20260903015504 60 164 0.0 0.0 0.00 0.00 0.00 58 1018.9
20260903015004 60 164 0.0 2.0 0.00 0.00 0.00 58 1019.0
20260903014004 61 270 0.0 5.0 0.00 0.00 0.00 56 1018.9
20260903013503 61 86 0.0 2.0 0.00 0.00 0.00 55 1018.9
20260903012503 61 124 0.0 2.0 0.00 0.00 0.00 51 1018.9
20260903012003 62 123 0.0 2.0 0.00 0.00 0.00 50 1018.9
20260903011502 62 88 1.0 4.0 0.00 0.00 0.00 51 1018.9
20260903011004 62 160 1.0 4.0 0.00 0.00 0.00 49 1018.9
20260903010504 62 172 1.0 4.0 0.00 0.00 0.00 48 1018.9
20260903010002 62 175 1.0 4.0 0.00 0.00 0.00 47 1019.0
20260903005504 63 235 1.0 4.0 0.00 0.00 0.00 47 1018.9
20260903004504 63 167 1.0 4.0 0.00 0.00 0.00 45 1018.9
20260903004004 63 155 0.0 4.0 0.00 0.00 0.00 45 1019.0
20260903003504 63 256 1.0 5.0 0.00 0.00 0.00 45 1019.0
20260903003005 63 91 1.0 5.0 0.00 0.00 0.00 44 1019.1
20260903002503 64 205 1.0 7.0 0.00 0.00 0.00 44 1019.1
20260903002004 64 233 1.0 7.0 0.00 0.00 0.00 44 1019.1
20260903001004 65 163 1.0 6.0 0.00 0.00 0.00 43 1019.1
20260903000501 66 190 1.0 9.0 0.00 0.00 0.00 42 1019.1
20260902235505 67 203 2.0 7.0 0.00 0.00 0.00 41 1019.1
20260902235006 67 214 2.0 9.0 0.00 0.00 0.00 40 1019.2
20260902234503 69 108 1.0 4.0 0.00 0.00 0.00 39 1019.2
20260902232004 69 285 2.0 5.0 0.00 0.00 0.00 38 1019.2
20260902231503 69 139 1.0 5.0 0.00 0.00 0.00 37 1019.2
20260902231003 69 132 2.0 6.0 0.00 0.00 0.00 38 1019.2
20260902230503 68 193 2.0 9.0 0.00 0.00 0.00 39 1019.3
20260902230008 68 157 2.0 9.0 0.00 0.00 0.00 37 1019.4
20260902225503 68 331 2.0 5.0 0.00 0.00 0.00 37 1019.4
20260902225003 68 291 1.0 8.0 0.00 0.00 0.00 36 1019.5
20260902224503 69 153 1.0 6.0 0.00 0.00 0.00 38 1019.4
20260902224004 68 229 2.0 6.0 0.00 0.00 0.00 38 1019.5
20260902223503 68 162 2.0 5.0 0.00 0.00 0.00 39 1019.4
20260902223004 68 132 2.0 6.0 0.00 0.00 0.00 39 1019.5
20260902222506 68 134 2.0 6.0 0.00 0.00 0.00 38 1019.6
20260902221002 68 217 2.0 8.0 0.00 0.00 0.00 40 1019.6
20260902220010 67 289 3.0 8.0 0.00 0.00 0.00 40 1019.7
20260902215502 67 54 3.0 9.0 0.00 0.00 0.00 40 1019.7
20260902215003 68 128 2.0 9.0 0.00 0.00 0.00 39 1019.8
20260902214503 68 145 2.0 8.0 0.00 0.00 0.00 40 1019.8
20260902214003 68 283 2.0 6.0 0.00 0.00 0.00 38 1019.7
20260902213504 68 237 2.0 7.0 0.00 0.00 0.00 40 1019.7
20260902213004 69 122 2.0 7.0 0.00 0.00 0.00 38 1019.8
20260902212502 69 235 2.0 6.0 0.00 0.00 0.00 39 1019.9
20260902212003 69 127 2.0 8.0 0.00 0.00 0.00 39 1019.9
20260902211002 69 242 2.0 8.0 0.00 0.00 0.00 39 1019.9
20260902210002 68 250 3.0 8.0 0.00 0.00 0.00 40 1019.9
20260902205504 68 236 3.0 8.0 0.00 0.00 0.00 40 1019.7
20260902204503 68 108 3.0 9.0 0.00 0.00 0.00 40 1019.8
20260902204010 68 241 3.0 7.0 0.00 0.00 0.00 40 1019.8
20260902203509 69 257 3.0 6.0 0.00 0.00 0.00 40 1019.8
20260902203009 68 297 3.0 6.0 0.00 0.00 0.00 41 1019.7
20260902202504 68 143 2.0 6.0 0.00 0.00 0.00 41 1019.8
20260902202008 68 73 2.0 8.0 0.00 0.00 0.00 42 1019.9
20260902201508 68 155 3.0 8.0 0.00 0.00 0.00 40 1019.9
20260902201010 67 198 2.0 8.0 0.00 0.00 0.00 41 1020.0
20260902200008 66 221 3.0 9.0 0.00 0.00 0.00 41 1020.0
20260902195505 66 166 2.0 7.0 0.00 0.00 0.00 43 1020.1
20260902195006 66 227 2.0 5.0 0.00 0.00 0.00 43 1020.3
20260902194504 66 254 3.0 9.0 0.00 0.00 0.00 43 1020.2
20260902194006 66 198 4.0 14.0 0.00 0.00 0.00 42 1020.1
20260902193505 66 195 4.0 14.0 0.00 0.00 0.00 43 1020.1
20260902193005 67 114 3.0 10.0 0.00 0.00 0.00 41 1020.0
20260902192502 67 122 2.0 10.0 0.00 0.00 0.00 41 1020.0
20260902192005 67 245 2.0 9.0 0.00 0.00 0.00 43 1020.0
20260902191003 67 143 2.0 8.0 0.00 0.00 0.00 44 1019.9
20260902190501 67 248 2.0 7.0 0.00 0.00 0.00 45 1020.0
20260902190004 67 288 2.0 7.0 0.00 0.00 0.00 44 1020.0
20260902185503 66 226 2.0 11.0 0.00 0.00 0.00 46 1019.8
20260902185104 65 264 3.0 9.0 0.00 0.00 0.00 46 1019.8
20260902184002 65 59 2.0 8.0 0.00 0.00 0.00 47 1019.8
20260902183002 64 188 3.0 9.0 0.00 0.00 0.00 47 1019.8
20260902182503 64 117 3.0 12.0 0.00 0.00 0.00 46 1020.0
20260902182004 65 122 3.0 11.0 0.00 0.00 0.00 48 1019.9
20260902181504 65 126 3.0 8.0 0.00 0.00 0.00 46 1019.9
20260902181005 65 130 2.0 10.0 0.00 0.00 0.00 49 1019.9
20260902180008 64 82 2.0 8.0 0.00 0.00 0.00 48 1020.0
20260902175504 64 293 2.0 7.0 0.00 0.00 0.00 48 1019.9
20260902174504 64 115 2.0 8.0 0.00 0.00 0.00 48 1019.8
20260902173504 63 256 2.0 10.0 0.00 0.00 0.00 50 1019.7
20260902173003 63 238 2.0 10.0 0.00 0.00 0.00 50 1019.7
20260902172504 63 225 2.0 8.0 0.00 0.00 0.00 50 1019.5
20260902172004 62 184 2.0 8.0 0.00 0.00 0.00 52 1019.5
20260902171504 62 106 2.0 7.0 0.00 0.00 0.00 51 1019.5
20260902171004 62 150 2.0 8.0 0.00 0.00 0.00 51 1019.6
20260902170007 60 144 2.0 7.0 0.00 0.00 0.00 55 1019.7
20260902165502 60 209 2.0 5.0 0.00 0.00 0.00 56 1019.6
20260902165006 59 137 2.0 7.0 0.00 0.00 0.00 56 1019.6
20260902164502 59 125 1.0 7.0 0.00 0.00 0.00 56 1019.5
20260902164007 60 230 2.0 5.0 0.00 0.00 0.00 56 1019.5
20260902163503 60 276 2.0 6.0 0.00 0.00 0.00 55 1019.5
20260902162504 60 223 2.0 6.0 0.00 0.00 0.00 55 1019.3
20260902162023 60 221 1.0 6.0 0.00 0.00 0.00 56 1019.2
20260902161505 59 139 1.0 4.0 0.00 0.00 0.00 56 1019.2
20260902160009 58 155 1.0 3.0 0.00 0.00 0.00 58 1019.3
20260902155005 56 143 0.0 2.0 0.00 0.00 0.00 61 1019.2
20260902154503 56 136 0.0 1.0 0.00 0.00 0.00 62 1019.2
20260902154002 56 136 0.0 1.0 0.00 0.00 0.00 62 1019.2
20260902153502 56 125 0.0 2.0 0.00 0.00 0.00 62 1019.2
20260902152006 55 155 0.0 1.0 0.00 0.00 0.00 64 1019.1
20260902151505 54 155 0.0 1.0 0.00 0.00 0.00 65 1019.2
20260902151004 54 155 0.0 1.0 0.00 0.00 0.00 65 1019.1
20260902150500 53 160 0.0 1.0 0.00 0.00 0.00 67 1019.3
20260902150007 53 305 0.0 0.0 0.00 0.00 0.00 67 1019.2
20260902145503 52 306 0.0 0.0 0.00 0.00 0.00 69 1019.2
20260902145005 52 306 0.0 0.0 0.00 0.00 0.00 71 1019.2
20260902144502 51 306 0.0 0.0 0.00 0.00 0.00 72 1019.2
20260902144004 51 306 0.0 0.0 0.00 0.00 0.00 72 1019.2
20260902143502 50 306 0.0 0.0 0.00 0.00 0.00 72 1019.1
20260902143006 50 305 0.0 0.0 0.00 0.00 0.00 72 1019.0
20260902142503 50 305 0.0 0.0 0.00 0.00 0.00 72 1018.9
20260902142004 49 305 0.0 0.0 0.00 0.00 0.00 72 1018.7
20260902141504 49 305 0.0 0.0 0.00 0.00 0.00 71 1018.5
20260902141005 49 305 0.0 0.0 0.00 0.00 0.00 72 1018.5
20260902140506 48 305 0.0 0.0 0.00 0.00 0.00 73 1018.5
20260902140009 47 305 0.0 0.0 0.00 0.00 0.00 74 1018.4
20260902135506 47 305 0.0 0.0 0.00 0.00 0.00 73 1018.3
20260902135008 48 305 0.0 0.0 0.00 0.00 0.00 72 1018.5
20260902134507 48 305 0.0 0.0 0.00 0.00 0.00 72 1018.5
20260902134007 48 305 0.0 0.0 0.00 0.00 0.00 72 1018.3
20260902133505 48 305 0.0 0.0 0.00 0.00 0.00 72 1018.2
20260902132503 48 305 0.0 0.0 0.00 0.00 0.00 72 1018.1
20260902132005 48 305 0.0 0.0 0.00 0.00 0.00 71 1018.0
20260902131505 48 305 0.0 0.0 0.00 0.00 0.00 71 1017.9
20260902131007 48 305 0.0 0.0 0.00 0.00 0.00 71 1017.9
20260902130504 48 305 0.0 0.0 0.00 0.00 0.00 70 1017.8
20260902125504 49 305 0.0 0.0 0.00 0.00 0.00 70 1017.8
20260902125003 48 305 0.0 0.0 0.00 0.00 0.00 70 1017.8
20260902124504 48 305 0.0 0.0 0.00 0.00 0.00 71 1017.8
20260902124006 48 305 0.0 0.0 0.00 0.00 0.00 71 1017.7
20260902123504 48 305 0.0 0.0 0.00 0.00 0.00 71 1017.7
20260902123004 48 305 0.0 0.0 0.00 0.00 0.00 71 1017.7
20260902122504 48 305 0.0 0.0 0.00 0.00 0.00 71 1017.6
20260902122008 48 305 0.0 0.0 0.00 0.00 0.00 71 1017.6
20260902121504 48 305 0.0 0.0 0.00 0.00 0.00 72 1017.7
20260902121006 48 305 0.0 0.0 0.00 0.00 0.00 72 1017.7
20260902120006 49 305 0.0 0.0 0.00 0.00 0.00 71 1017.8
20260902115503 49 305 0.0 0.0 0.00 0.00 0.00 71 1017.9
20260902115005 48 305 0.0 0.0 0.00 0.00 0.00 72 1017.9
20260902114504 47 305 0.0 0.0 0.00 0.00 0.00 72 1018.0
20260902113503 48 305 0.0 0.0 0.00 0.00 0.00 71 1018.2
20260902113002 48 305 0.0 0.0 0.00 0.00 0.00 71 1018.2
20260902112504 48 305 0.0 0.0 0.00 0.00 0.00 71 1018.2
20260902112005 48 305 0.0 0.0 0.00 0.00 0.00 71 1018.3
20260902111503 48 305 0.0 0.0 0.00 0.00 0.00 71 1018.2
20260902111004 48 305 0.0 0.0 0.00 0.00 0.00 71 1018.2
20260902110459 48 305 0.0 0.0 0.00 0.00 0.00 71 1018.2
20260902110000 48 305 0.0 0.0 0.00 0.00 0.00 72 1018.3
20260902105504 48 305 0.0 0.0 0.00 0.00 0.00 72 1018.4
20260902105005 48 305 0.0 0.0 0.00 0.00 0.00 72 1018.4
20260902104000 49 305 0.0 0.0 0.00 0.00 0.00 70 1018.4
20260902103005 49 304 0.0 0.0 0.00 0.00 0.00 69 1018.4
20260902102459 49 305 0.0 0.0 0.00 0.00 0.00 70 1018.4
20260902102004 49 306 0.0 0.0 0.00 0.00 0.00 70 1018.3
20260902101504 48 306 0.0 0.0 0.00 0.00 0.00 71 1018.3
20260902101004 49 306 0.0 0.0 0.00 0.00 0.00 70 1018.4
20260902100503 49 306 0.0 0.0 0.00 0.00 0.00 69 1018.5
20260902100007 49 306 0.0 0.0 0.00 0.00 0.00 68 1018.4
20260902095504 50 306 0.0 0.0 0.00 0.00 0.00 68 1018.6
20260902094504 50 306 0.0 0.0 0.00 0.00 0.00 68 1018.5
20260902094003 49 306 0.0 0.0 0.00 0.00 0.00 69 1018.5
20260902093504 49 306 0.0 0.0 0.00 0.00 0.00 69 1018.5
20260902093001 49 306 0.0 0.0 0.00 0.00 0.00 69 1018.5
20260902092503 50 306 0.0 0.0 0.00 0.00 0.00 69 1018.6
20260902092004 50 306 0.0 0.0 0.00 0.00 0.00 69 1018.6
20260902091504 49 306 0.0 0.0 0.00 0.00 0.00 69 1018.6
20260902091004 49 306 0.0 0.0 0.00 0.00 0.00 70 1018.6
20260902090504 49 306 0.0 0.0 0.00 0.00 0.00 70 1018.5
20260902090007 49 306 0.0 0.0 0.00 0.00 0.00 70 1018.5
20260902085506 49 306 0.0 0.0 0.00 0.00 0.00 70 1018.6
20260902084459 50 306 0.0 0.0 0.00 0.00 0.00 70 1018.6
20260902084005 50 305 0.0 0.0 0.00 0.00 0.00 70 1018.6
20260902083504 49 305 0.0 0.0 0.00 0.00 0.00 71 1018.6
20260902083005 49 305 0.0 0.0 0.00 0.00 0.00 71 1018.6
20260902082500 49 305 0.0 0.0 0.00 0.00 0.00 72 1018.6
20260902082005 50 305 0.0 0.0 0.00 0.00 0.00 72 1018.7
20260902081506 50 305 0.0 0.0 0.00 0.00 0.00 72 1018.7
20260902080504 50 305 0.0 1.0 0.00 0.00 0.00 71 1018.8
20260902080004 50 305 0.0 1.0 0.00 0.00 0.00 72 1018.8
20260902075500 50 309 0.0 1.0 0.00 0.00 0.00 73 1018.6
20260902075006 50 284 0.0 1.0 0.00 0.00 0.00 73 1018.6
20260902074500 50 277 0.0 1.0 0.00 0.00 0.00 73 1018.5
20260902074004 49 271 0.0 1.0 0.00 0.00 0.00 74 1018.5
20260902073004 49 253 0.0 2.0 0.00 0.00 0.00 74 1018.5
20260902072505 49 284 0.0 1.0 0.00 0.00 0.00 75 1018.5
20260902072004 48 284 0.0 1.0 0.00 0.00 0.00 76 1018.5
20260902071504 48 285 0.0 1.0 0.00 0.00 0.00 77 1018.5
20260902071005 48 285 0.0 1.0 0.00 0.00 0.00 78 1018.5
20260902070502 48 302 0.0 1.0 0.00 0.00 0.00 78 1018.5
20260902070011 48 302 0.0 1.0 0.00 0.00 0.00 79 1018.5
20260902065501 47 303 0.0 1.0 0.00 0.00 0.00 80 1018.5
20260902065004 47 303 0.0 1.0 0.00 0.00 0.00 81 1018.6
20260902064503 46 305 0.0 0.0 0.00 0.00 0.00 82 1018.5
20260902064004 46 305 0.0 0.0 0.00 0.00 0.00 82 1018.6
20260902063004 46 305 0.0 0.0 0.00 0.00 0.00 82 1018.6
20260902062004 46 305 0.0 0.0 0.00 0.00 0.00 83 1018.6
20260902061459 46 305 0.0 0.0 0.00 0.00 0.00 82 1018.5
20260902061004 46 305 0.0 0.0 0.00 0.00 0.00 82 1018.6
20260902060504 46 305 0.0 0.0 0.00 0.00 0.00 81 1018.7
20260902060008 46 305 0.0 0.0 0.00 0.00 0.00 81 1018.7
20260902055006 47 304 0.0 1.0 0.00 0.00 0.00 79 1018.8
20260902054500 47 316 0.0 1.0 0.00 0.00 0.00 79 1018.8
20260902054008 47 9 0.0 1.0 0.00 0.00 0.00 79 1018.8
20260902053503 47 10 0.0 1.0 0.00 0.00 0.00 79 1018.7
20260902053004 47 124 0.0 0.0 0.00 0.00 0.00 79 1018.8
20260902052503 47 126 0.0 1.0 0.00 0.00 0.00 78 1018.7
20260902052000 48 126 0.0 1.0 0.00 0.00 0.00 78 1018.8
20260902051503 48 126 0.0 1.0 0.00 0.00 0.00 78 1018.9
20260902051007 48 126 0.0 0.0 0.00 0.00 0.00 78 1018.9
20260902050504 48 126 0.0 1.0 0.00 0.00 0.00 77 1018.8
20260902050005 48 126 0.0 1.0 0.00 0.00 0.00 77 1018.9
20260902045002 49 126 0.0 1.0 0.00 0.00 0.00 76 1018.7
20260902044503 49 127 0.0 1.0 0.00 0.00 0.00 76 1018.8